Location: Eyeline Observatory
(43.2182°N, 78.8632°W)
Time: 11:52:18
(UTC-05:00)

HO-68 - Visible Passes

Search period start: 24 November 2017 00:00
Search period end: 04 December 2017 00:00
Orbit: 1193 x 1204 km, 100.1° (Epoch: 24 November)

Date Brightness Start Highest point End Pass type
(mag) Time Alt. Az. Time Alt. Az. Time Alt. Az.
24 Nov ? 17:39:37 10° SE 17:46:24 47° ENE 17:53:12 10° N visible
24 Nov ? 19:27:43 10° SSW 19:34:13 36° W 19:40:47 10° NNW visible
25 Nov ? 17:23:12 10° SE 17:29:38 37° ENE 17:36:05 10° N visible
25 Nov ? 19:10:18 10° S 19:17:10 47° W 19:24:06 10° NNW visible
26 Nov ? 06:36:45 10° NNE 06:43:09 33° E 06:49:29 10° SSE visible
26 Nov ? 17:06:56 10° ESE 17:12:54 29° ENE 17:18:53 10° N visible
26 Nov ? 18:53:04 10° S 19:00:10 61° WSW 19:07:19 10° NNW visible
27 Nov ? 06:20:15 10° NE 06:26:02 26° E 06:31:46 10° SSE visible
27 Nov ? 18:36:00 10° SSE 18:43:12 78° WSW 18:50:27 10° NNW visible
27 Nov ? 20:28:42 10° WSW 20:32:01 14° W 20:35:22 10° WNW visible
28 Nov ? 06:03:58 10° NE 06:08:52 19° E 06:13:44 10° SE visible
28 Nov ? 18:19:06 10° SSE 18:26:17 83° ENE 18:33:32 10° NNW visible
28 Nov ? 20:10:01 10° SW 20:14:48 19° W 20:19:36 10° NW visible
29 Nov ? 05:48:09 10° ENE 05:51:40 14° E 05:55:09 10° ESE visible
29 Nov ? 18:02:19 10° SSE 18:09:25 66° ENE 18:16:33 10° N visible
29 Nov ? 19:51:57 10° SW 19:57:38 25° W 20:03:22 10° NW visible
30 Nov ? 17:45:41 10° SE 17:52:35 52° ENE 17:59:30 10° N visible
30 Nov ? 19:34:13 10° SSW 19:40:32 33° W 19:46:53 10° NNW visible
01 Dec ? 17:29:12 10° SE 17:35:48 41° ENE 17:42:24 10° N visible
01 Dec ? 19:16:43 10° SSW 19:23:27 42° W 19:30:15 10° NNW visible
02 Dec ? 06:42:52 10° NNE 06:49:27 37° E 06:55:57 10° SSE visible
02 Dec ? 17:12:53 10° ESE 17:19:03 32° ENE 17:25:14 10° N visible
02 Dec ? 18:59:25 10° S 19:06:26 55° W 19:13:30 10° NNW visible
03 Dec ? 06:26:17 10° NE 06:32:21 29° E 06:38:21 10° SSE visible
03 Dec ? 18:42:17 10° S 18:49:27 71° WSW 18:56:40 10° NNW visible
03 Dec ? 20:36:03 10° WSW 20:38:24 12° W 20:40:45 10° WNW visible
